KD7MPG-3 Weather Reports


time (UTC)temp
F
wind
direction
speed
knots
gust
knots
rain 1hr
in
rain 24hr
in
rain mn
in
humidity
%
barometer
mb
20260902050117 62 157 0.9 2.6 0.00 0.01 0.01 82 1020.9
20260902045618 62 159 0.9 2.6 0.00 0.01 0.01 82 1020.9
20260902045118 62 158 0.9 2.6 0.00 0.01 0.01 82 1020.9
20260902044617 62 158 0.0 1.7 0.00 0.01 0.01 82 1020.8
20260902044119 62 157 0.0 1.7 0.00 0.01 0.01 82 1020.8
20260902043613 62 157 0.0 1.7 0.00 0.01 0.01 81 1020.9
20260902043114 62 158 0.0 1.7 0.00 0.01 0.01 81 1020.8
20260902042614 62 157 0.0 1.7 0.00 0.01 0.01 81 1020.8
20260902042114 63 157 0.0 2.6 0.00 0.01 0.01 81 1020.8
20260902041614 63 157 0.0 2.6 0.00 0.01 0.01 81 1020.8
20260902041115 63 156 0.0 1.7 0.00 0.01 0.01 81 1020.9
20260902040609 63 157 0.0 1.7 0.00 0.01 0.01 81 1021.0
20260902040110 63 157 0.0 1.7 0.00 0.01 0.01 81 1020.9
20260902035609 63 157 0.9 2.6 0.00 0.01 0.01 81 1020.9
20260902035110 63 155 1.7 5.2 0.00 0.01 0.01 80 1020.8
20260902034609 63 151 1.7 5.2 0.00 0.01 0.01 80 1020.8
20260902034110 63 137 1.7 6.1 0.00 0.01 0.01 80 1020.8
20260902033604 63 178 1.7 6.1 0.00 0.01 0.01 80 1020.8
20260902033105 63 163 2.6 6.1 0.00 0.01 0.01 80 1020.8
20260902032600 63 246 1.7 6.1 0.00 0.01 0.01 80 1020.8
20260902032100 63 181 1.7 6.1 0.00 0.01 0.01 80 1020.8
20260902031557 63 182 1.7 6.1 0.00 0.01 0.01 80 1020.7
20260902031057 63 230 1.7 5.2 0.00 0.01 0.01 79 1020.7
20260902030555 63 197 1.7 5.2 0.00 0.01 0.01 79 1020.6
20260902030056 64 184 1.7 5.2 0.00 0.01 0.01 79 1020.6
20260902025551 64 167 0.9 5.2 0.00 0.01 0.01 79 1020.5
20260902025051 64 187 0.9 2.6 0.00 0.01 0.01 79 1020.5
20260902024553 64 199 0.9 2.6 0.00 0.01 0.01 79 1020.5
20260902024051 64 217 0.9 3.5 0.00 0.01 0.01 78 1020.4
20260902023555 64 230 0.9 4.3 0.00 0.01 0.01 78 1020.5
20260902023050 64 161 0.9 4.3 0.00 0.01 0.01 78 1020.4
20260902022545 64 148 0.9 4.3 0.00 0.01 0.01 78 1020.4
20260902022045 64 172 0.9 5.2 0.00 0.01 0.01 78 1020.4
20260902021546 64 194 0.9 5.2 0.00 0.01 0.01 78 1020.4
20260902021047 64 242 0.9 3.5 0.00 0.01 0.01 78 1020.5
20260902020543 64 244 0.9 3.5 0.00 0.01 0.01 78 1020.4
20260902020044 64 186 0.9 3.5 0.00 0.01 0.01 78 1020.4
20260902015542 64 261 0.9 3.5 0.00 0.01 0.01 78 1020.3
20260902015039 64 252 0.9 3.5 0.00 0.01 0.01 78 1020.3
20260902014541 64 186 0.9 2.6 0.00 0.01 0.01 78 1020.3
20260902014041 64 185 0.9 4.3 0.00 0.01 0.01 78 1020.2
20260902013537 64 244 0.9 4.3 0.00 0.01 0.01 78 1020.4
20260902013038 64 171 0.9 4.3 0.00 0.01 0.01 79 1020.5
20260902012535 64 246 1.7 4.3 0.00 0.01 0.01 79 1020.4
20260902012035 64 178 1.7 6.1 0.00 0.01 0.01 78 1020.5
20260902011536 64 246 1.7 6.1 0.00 0.01 0.01 78 1020.6
20260902011033 64 182 2.6 6.1 0.00 0.01 0.01 78 1020.6
20260902010531 64 243 2.6 9.6 0.00 0.01 0.01 77 1020.5
20260902010030 65 198 2.6 9.6 0.00 0.01 0.01 78 1020.4
20260902005524 65 228 3.5 7.8 0.00 0.01 0.01 77 1020.3
20260902005023 65 266 2.6 7.8 0.00 0.01 0.01 77 1020.2
20260902004523 65 204 2.6 7.0 0.00 0.01 0.01 76 1020.2
20260902004023 65 231 3.5 9.6 0.00 0.01 0.01 76 1020.2
20260902003523 66 274 2.6 9.6 0.00 0.01 0.01 75 1020.1
20260902003023 66 222 1.7 6.1 0.00 0.01 0.01 75 1020.1
20260902002518 67 219 3.5 7.8 0.00 0.01 0.01 75 1019.9
20260902002017 67 241 3.5 7.8 0.00 0.01 0.01 74 1020.0
20260902001517 67 273 2.6 7.0 0.00 0.01 0.01 73 1019.9
20260902001017 67 242 1.7 4.3 0.00 0.01 0.01 73 1019.9
20260902000517 67 182 2.6 6.1 0.00 0.01 0.01 72 1019.9
20260902000018 67 247 2.6 6.1 0.00 0.01 0.01 72 1020.0
20260901235514 67 268 2.6 7.0 0.00 0.01 0.01 72 1019.9
20260901235012 67 241 1.7 7.0 0.00 0.01 0.01 71 1019.9
20260901234511 67 204 2.6 7.8 0.00 0.01 0.01 71 1019.9
20260901234011 67 240 3.5 7.8 0.00 0.01 0.01 71 1019.9
20260901233510 67 248 2.6 7.8 0.00 0.01 0.01 71 1019.9
20260901232508 68 226 1.7 6.1 0.00 0.01 0.01 72 1019.9
20260901232009 68 232 2.6 6.1 0.00 0.01 0.01 72 1020.0
20260901231510 68 213 2.6 6.1 0.00 0.01 0.01 72 1020.0
20260901231006 68 273 1.7 6.1 0.00 0.01 0.01 72 1020.0
20260901230505 68 254 1.7 4.3 0.00 0.01 0.01 72 1020.1
20260901230005 68 211 1.7 5.2 0.00 0.01 0.01 72 1020.0
20260901225500 68 166 1.7 5.2 0.00 0.01 0.01 71 1020.0
20260901224959 68 205 1.7 5.2 0.00 0.01 0.01 71 1020.0
20260901224458 68 259 1.7 5.2 0.00 0.01 0.01 72 1020.0
20260901223958 68 242 1.7 4.3 0.00 0.01 0.01 72 1020.0
20260901223459 68 191 2.6 6.1 0.00 0.01 0.01 72 1020.0
20260901223000 68 217 2.6 6.1 0.00 0.01 0.01 72 1020.1
20260901222453 68 163 2.6 6.1 0.00 0.01 0.01 71 1020.1
20260901221953 68 249 2.6 6.1 0.00 0.01 0.01 71 1020.1
20260901221453 68 188 2.6 5.2 0.00 0.01 0.01 71 1020.1
20260901220952 68 207 1.7 5.2 0.00 0.01 0.01 71 1020.1
20260901220453 68 215 2.6 8.7 0.00 0.01 0.01 71 1020.0
20260901215954 68 167 2.6 8.7 0.00 0.01 0.01 71 1020.0
20260901215448 68 209 1.7 5.2 0.00 0.01 0.01 72 1020.0
20260901214946 67 212 1.7 7.0 0.00 0.01 0.01 72 1020.0
20260901214446 67 148 1.7 7.0 0.00 0.01 0.01 72 1019.9
20260901213948 67 215 2.6 7.0 0.00 0.01 0.01 72 1019.9
20260901213447 67 246 2.6 7.0 0.00 0.01 0.01 73 1019.9
20260901212948 67 196 1.7 7.0 0.00 0.01 0.01 73 1019.8
20260901212445 67 163 1.7 7.8 0.00 0.01 0.01 72 1019.9
20260901211943 67 216 2.6 7.8 0.00 0.01 0.01 73 1019.9
20260901211440 67 155 3.5 8.7 0.00 0.01 0.01 72 1020.0
20260901210940 68 152 2.6 8.7 0.00 0.01 0.01 72 1020.0
20260901210438 68 182 1.7 7.0 0.00 0.01 0.01 72 1020.0
20260901205940 68 166 2.6 6.1 0.00 0.01 0.01 72 1019.8
20260901205437 68 175 1.7 6.1 0.00 0.01 0.01 71 1019.9
20260901204937 68 182 1.7 7.8 0.00 0.01 0.01 71 1019.9
20260901204438 69 177 2.6 7.8 0.00 0.01 0.01 71 1019.9
20260901203934 69 232 2.6 7.0 0.00 0.01 0.01 70 1019.9
20260901203436 69 155 2.6 6.1 0.00 0.01 0.01 70 1019.9
20260901202934 69 161 2.6 9.6 0.00 0.01 0.01 69 1019.9
20260901202436 69 193 3.5 9.6 0.00 0.01 0.01 70 1020.0
20260901201932 69 263 2.6 7.8 0.00 0.01 0.01 71 1020.1
20260901201430 69 162 2.6 7.8 0.00 0.01 0.01 72 1020.0
20260901200932 68 212 2.6 7.0 0.00 0.01 0.01 73 1020.0
20260901200431 67 189 2.6 7.0 0.00 0.01 0.01 75 1020.0
20260901195930 67 194 1.7 5.2 0.00 0.01 0.01 77 1020.0
20260901195431 67 172 0.9 5.2 0.00 0.01 0.01 78 1020.1
20260901194932 67 168 0.9 5.2 0.00 0.01 0.01 77 1020.1
20260901194429 67 162 0.9 5.2 0.00 0.01 0.01 78 1020.2
20260901193928 67 175 0.9 5.2 0.00 0.01 0.01 78 1020.3
20260901193429 67 173 1.7 7.0 0.00 0.01 0.01 78 1020.3
20260901192929 67 197 2.6 7.0 0.00 0.01 0.01 78 1020.3
20260901192430 67 167 1.7 6.1 0.00 0.01 0.01 78 1020.4
20260901191928 67 133 1.7 7.0 0.01 0.01 0.01 78 1020.5
20260901191429 67 123 1.7 7.0 0.01 0.01 0.01 79 1020.5
20260901190929 67 147 1.7 9.6 0.01 0.01 0.01 80 1020.5
20260901190428 67 138 1.7 9.6 0.01 0.01 0.01 81 1020.7
20260901185930 66 180 2.6 7.0 0.01 0.01 0.01 83 1020.6
20260901185423 66 206 2.6 7.0 0.01 0.01 0.01 83 1020.7
20260901184919 65 185 2.6 6.1 0.01 0.01 0.01 83 1020.8
20260901184418 65 129 1.7 6.1 0.01 0.01 0.01 85 1020.8
20260901183918 64 134 1.7 7.0 0.01 0.01 0.01 85 1020.7
20260901183418 64 161 2.6 7.0 0.01 0.01 0.01 84 1020.8
20260901182919 64 161 2.6 6.1 0.01 0.01 0.01 84 1020.8
20260901182419 64 209 2.6 7.0 0.01 0.01 0.01 84 1020.9
20260901181915 64 158 2.6 7.0 0.00 0.00 0.00 84 1020.9
20260901181414 64 192 2.6 7.0 0.00 0.00 0.00 83 1020.9
20260901180914 64 180 2.6 7.0 0.00 0.00 0.00 82 1020.8
20260901180415 64 189 1.7 7.0 0.00 0.00 0.00 82 1020.9
20260901175915 65 142 1.7 6.1 0.00 0.00 0.00 82 1020.9
20260901175415 65 199 2.6 7.8 0.00 0.00 0.00 82 1020.9
20260901174911 64 161 1.7 7.8 0.00 0.00 0.00 83 1021.0
20260901174412 64 171 1.7 6.1 0.00 0.00 0.00 84 1020.9
20260901173910 64 159 2.6 5.2 0.00 0.00 0.00 85 1020.8
20260901173411 63 166 2.6 9.6 0.00 0.00 0.00 84 1020.8
20260901172910 63 155 2.6 9.6 0.00 0.00 0.00 84 1020.8
20260901172412 63 230 2.6 7.0 0.00 0.00 0.00 85 1020.8
20260901171910 63 144 2.6 7.0 0.00 0.00 0.00 85 1020.7
20260901171410 63 206 1.7 6.1 0.00 0.00 0.00 85 1020.7
20260901170911 63 162 1.7 7.0 0.00 0.00 0.00 86 1020.6
20260901170407 63 222 1.7 7.0 0.00 0.00 0.00 86 1020.6
20260901165904 62 167 2.6 7.0 0.00 0.00 0.00 87 1020.8
20260901165403 62 178 1.7 7.0 0.00 0.00 0.00 87 1020.7
20260901164902 61 153 0.9 3.5 0.00 0.00 0.00 88 1020.7
20260901164402 61 157 0.9 2.6 0.00 0.00 0.00 89 1020.7
20260901163902 60 157 0.9 4.3 0.00 0.00 0.00 89 1020.8
20260901163358 60 159 0.9 4.3 0.00 0.00 0.00 89 1020.9
20260901162858 60 205 0.9 3.5 0.00 0.00 0.00 89 1020.9
20260901162356 60 146 0.9 3.5 0.00 0.00 0.00 89 1021.0
20260901161856 60 166 0.9 3.5 0.00 0.00 0.00 89 1021.0
20260901161356 60 168 0.9 3.5 0.00 0.00 0.00 89 1021.2
20260901160857 60 163 1.7 4.3 0.00 0.00 0.00 89 1021.2
20260901160351 60 175 1.7 5.2 0.00 0.00 0.00 89 1021.1
20260901155850 60 170 1.7 5.2 0.00 0.00 0.00 89 1021.1
20260901155350 60 200 0.9 4.3 0.00 0.00 0.00 89 1021.0
20260901154850 60 169 0.9 3.5 0.00 0.00 0.00 88 1021.1
20260901154350 60 155 0.9 5.2 0.00 0.00 0.00 88 1021.1
20260901153850 60 154 1.7 5.2 0.00 0.00 0.00 88 1021.1
20260901153344 60 165 0.9 4.3 0.00 0.00 0.00 88 1021.0
20260901152844 60 161 1.7 4.3 0.00 0.00 0.00 87 1021.1
20260901152344 60 132 1.7 7.0 0.00 0.00 0.00 87 1020.9
20260901151844 60 142 2.6 9.6 0.00 0.00 0.00 87 1021.0
20260901151344 60 171 2.6 9.6 0.00 0.00 0.00 86 1020.9
20260901150844 60 158 2.6 7.0 0.00 0.00 0.00 86 1020.9
20260901150340 60 153 1.7 7.0 0.00 0.00 0.00 86 1020.7
20260901145839 60 158 1.7 6.1 0.00 0.00 0.00 86 1020.6
20260901145341 60 174 1.7 5.2 0.00 0.00 0.00 86 1020.7
20260901144840 60 142 1.7 5.2 0.00 0.00 0.00 85 1020.6
20260901144338 60 157 1.7 4.3 0.00 0.00 0.00 85 1020.6
20260901143837 60 136 1.7 4.3 0.00 0.00 0.00 85 1020.5
20260901143336 60 154 1.7 5.2 0.00 0.00 0.00 86 1020.5
20260901142834 60 188 1.7 5.2 0.00 0.00 0.00 85 1020.5
20260901142335 60 192 1.7 5.2 0.00 0.00 0.00 85 1020.6
20260901141834 60 138 1.7 5.2 0.00 0.00 0.00 85 1020.5
20260901141332 60 155 1.7 5.2 0.00 0.00 0.00 85 1020.5
20260901140833 60 172 0.9 5.2 0.00 0.00 0.00 85 1020.4
20260901140328 60 117 0.9 3.5 0.00 0.00 0.00 85 1020.3
20260901135826 60 117 1.7 4.3 0.00 0.00 0.00 85 1020.2
20260901135326 60 119 0.9 4.3 0.00 0.00 0.00 85 1020.3
20260901134826 60 157 0.9 4.3 0.00 0.00 0.00 85 1020.3
20260901134325 60 167 1.7 4.3 0.00 0.00 0.00 85 1020.1
20260901133827 60 144 0.9 4.3 0.00 0.00 0.00 86 1020.1
20260901133321 60 153 0.9 3.5 0.00 0.00 0.00 86 1020.2
20260901132820 60 161 0.9 3.5 0.00 0.00 0.00 86 1020.1
20260901132319 60 162 0.9 3.5 0.00 0.00 0.00 86 1020.3
20260901131820 60 163 0.9 3.5 0.00 0.00 0.00 86 1020.2
20260901131320 60 162 0.9 3.5 0.00 0.00 0.00 86 1020.2
20260901130820 60 161 0.9 4.3 0.00 0.00 0.00 86 1020.2
20260901130317 60 152 0.9 4.3 0.00 0.00 0.00 86 1020.2
20260901125816 60 157 0.9 3.5 0.00 0.00 0.00 86 1020.2
20260901125314 60 159 0.9 3.5 0.00 0.00 0.00 86 1020.2
20260901124813 59 159 0.9 4.3 0.00 0.00 0.00 86 1020.2
20260901124314 59 160 0.9 4.3 0.00 0.00 0.00 86 1020.1
20260901123814 59 171 0.9 3.5 0.00 0.00 0.00 86 1020.1
20260901123310 59 171 0.9 4.3 0.00 0.00 0.00 86 1020.1
20260901122810 59 163 1.7 4.3 0.00 0.00 0.00 86 1020.2
20260901122308 59 160 0.9 4.3 0.00 0.00 0.00 86 1020.1
20260901121808 59 159 0.9 3.5 0.00 0.00 0.00 86 1020.3
20260901121307 59 161 0.9 3.5 0.00 0.00 0.00 87 1020.2
20260901120808 59 157 1.7 5.2 0.00 0.00 0.00 87 1020.2
20260901120304 59 143 0.9 5.2 0.00 0.00 0.00 87 1020.1
20260901115804 59 134 0.9 4.3 0.00 0.00 0.00 87 1020.1
20260901115306 59 178 0.0 1.7 0.00 0.00 0.00 87 1020.1
20260901114804 58 179 0.0 1.7 0.00 0.00 0.00 87 1020.2
20260901114301 58 184 0.0 0.9 0.00 0.00 0.00 87 1020.2
20260901113802 58 184 0.0 0.9 0.00 0.00 0.00 87 1020.2
20260901113259 58 184 0.0 0.9 0.00 0.00 0.00 87 1020.2
20260901112757 58 184 0.0 0.9 0.00 0.00 0.00 87 1020.1
20260901112259 58 183 0.0 0.9 0.00 0.00 0.00 87 1020.1
20260901111757 58 184 0.0 0.9 0.00 0.00 0.00 87 1020.1
20260901111255 58 183 0.0 0.9 0.00 0.00 0.00 87 1020.0
20260901110757 58 184 0.0 1.7 0.00 0.00 0.00 87 1020.1
20260901110255 58 184 0.0 1.7 0.00 0.00 0.00 87 1020.0
20260901105752 58 183 0.0 0.9 0.00 0.00 0.00 88 1020.1
20260901105249 58 184 0.0 0.9 0.00 0.00 0.00 88 1020.0
20260901104751 58 183 0.0 1.7 0.00 0.00 0.00 88 1020.0
20260901104250 57 183 0.0 1.7 0.00 0.00 0.00 88 1020.0
20260901103751 57 184 0.0 1.7 0.00 0.00 0.00 88 1020.0
20260901103247 57 184 0.0 1.7 0.00 0.00 0.00 88 1019.9
20260901102746 57 186 0.0 2.6 0.00 0.00 0.00 88 1019.9
20260901102247 57 186 0.0 2.6 0.00 0.00 0.00 88 1019.8
20260901101746 57 188 0.0 0.9 0.00 0.00 0.00 88 1019.9
20260901101244 57 188 0.0 1.7 0.00 0.00 0.00 88 1019.9
20260901100743 57 188 0.0 1.7 0.00 0.00 0.00 88 1019.9
20260901100240 57 188 0.0 1.7 0.00 0.00 0.00 88 1019.9
20260901095739 57 190 0.0 1.7 0.00 0.00 0.00 88 1020.0
20260901095240 57 190 0.0 0.0 0.00 0.00 0.00 87 1019.9
20260901094746 57 190 0.0 0.0 0.00 0.00 0.00 87 1019.9
20260901094239 57 190 0.0 0.9 0.00 0.00 0.00 87 1020.0
20260901093741 57 190 0.0 0.9 0.00 0.00 0.00 87 1020.0
20260901093241 57 190 0.0 0.9 0.00 0.00 0.00 87 1020.1
20260901092735 57 190 0.0 1.7 0.00 0.00 0.00 87 1020.1
20260901092231 58 190 0.0 1.7 0.00 0.00 0.00 87 1020.0
20260901091725 58 190 0.0 0.9 0.00 0.00 0.00 87 1020.0
20260901091224 58 189 0.0 1.7 0.00 0.00 0.00 87 1019.9
20260901090724 58 190 0.0 2.6 0.00 0.00 0.00 87 1019.8
20260901090223 58 169 0.9 3.5 0.00 0.00 0.00 87 1019.7
20260901085722 58 168 0.9 4.3 0.00 0.00 0.00 87 1019.6
20260901085221 58 167 0.9 4.3 0.00 0.00 0.00 86 1019.6
20260901084723 58 173 0.9 4.3 0.00 0.00 0.00 86 1019.6
20260901084217 58 173 0.9 4.3 0.00 0.00 0.00 86 1019.6
20260901083718 58 160 0.9 4.3 0.00 0.00 0.00 86 1019.5
20260901083218 58 158 0.0 4.3 0.00 0.00 0.00 86 1019.6
20260901082717 59 176 0.0 1.7 0.00 0.00 0.00 86 1019.7
20260901082218 59 176 0.0 1.7 0.00 0.00 0.00 86 1019.6
20260901081718 59 175 0.0 2.6 0.00 0.00 0.00 86 1019.5
20260901081214 59 175 0.9 3.5 0.00 0.00 0.00 86 1019.5
20260901080713 59 175 0.9 3.5 0.00 0.00 0.00 85 1019.6
20260901080213 59 173 0.9 4.3 0.00 0.00 0.00 85 1019.6
20260901075714 59 185 0.9 4.3 0.00 0.00 0.00 85 1019.5
20260901075215 59 155 1.7 4.3 0.00 0.00 0.00 85 1019.5
20260901074714 59 171 0.9 4.3 0.00 0.00 0.00 85 1019.5
20260901074209 59 200 0.9 4.3 0.00 0.00 0.00 85 1019.5
20260901073711 59 173 1.7 4.3 0.00 0.00 0.00 85 1019.5
20260901073209 59 166 0.9 3.5 0.00 0.00 0.00 85 1019.4
20260901072709 60 154 0.9 3.5 0.00 0.00 0.00 85 1019.4
20260901072209 60 158 0.9 2.6 0.00 0.00 0.00 85 1019.4
20260901071711 60 160 0.9 3.5 0.00 0.00 0.00 84 1019.4
20260901071206 60 160 0.9 4.3 0.00 0.00 0.00 84 1019.4
20260901070703 60 165 1.7 6.1 0.00 0.00 0.00 84 1019.4
20260901070204 60 176 1.7 6.1 0.00 0.00 0.00 84 1019.3
20260901065701 60 160 1.7 4.3 0.00 0.00 0.00 84 1019.3
20260901065200 60 234 1.7 4.3 0.00 0.00 0.00 84 1019.3
20260901064701 60 166 1.7 4.3 0.00 0.00 0.00 84 1019.2
20260901064153 60 157 0.9 2.6 0.00 0.00 0.00 84 1019.1
20260901063655 60 152 0.9 4.3 0.00 0.00 0.00 83 1019.0
20260901063153 60 153 0.9 4.3 0.00 0.00 0.00 83 1019.0
20260901062652 61 167 0.9 4.3 0.00 0.00 0.00 83 1019.0
20260901062151 61 231 0.0 1.7 0.00 0.00 0.00 82 1018.9
20260901061652 61 231 0.0 0.9 0.00 0.00 0.00 82 1018.9
20260901061152 61 232 0.9 1.7 0.00 0.00 0.00 82 1018.9
20260901060648 62 232 0.9 3.5 0.00 0.00 0.00 82 1018.9
20260901060148 62 231 0.9 4.3 0.00 0.00 0.00 82 1018.7
20260901055647 62 223 0.9 4.3 0.00 0.00 0.00 81 1018.7
20260901055148 62 219 0.9 3.5 0.00 0.00 0.00 81 1018.8
20260901054647 62 254 1.7 4.3 0.00 0.00 0.00 81 1018.7
20260901054149 62 215 1.7 4.3 0.00 0.00 0.00 81 1018.5
20260901053643 63 243 1.7 3.5 0.00 0.00 0.00 80 1018.4
20260901053145 63 182 0.9 3.5 0.00 0.00 0.00 80 1018.5
20260901052644 63 186 1.7 4.3 0.00 0.00 0.00 79 1018.4
20260901052144 63 208 1.7 4.3 0.00 0.00 0.00 78 1018.3
20260901051643 64 225 1.7 4.3 0.00 0.00 0.00 77 1018.3
20260901051145 64 163 1.7 5.2 0.00 0.00 0.00 77 1018.2
20260901050639 64 179 1.7 5.2 0.00 0.00 0.00 76 1018.2